Atlanta Fulton, GA

5:52 PM EST on November 11, 2019 (GMT -0500)
Fulton County-Brown

Weather History for KFTY - September, 2019

Change the Weather History Date:

Wednesday, September 18, 2019

  Actual Average Record
Temperature  
Mean Temperature 79 °F 72 °F  
Max Temperature 87 °F 83 °F 93 °F (2010)
Min Temperature 70 °F 62 °F 54 °F (1999)
Degree Days  
Heating Degree Days 0 0  
Month to date heating degree days 0 0  
Since 1 July heating degree days 0 0  
Cooling Degree Days 14 7  
Month to date cooling degree days 295 175  
Year to date cooling degree days 2011 1612  
Growing Degree Days 28 (Base 50)    
Moisture  
Dew Point 66 °F    
Average Humidity 71    
Maximum Humidity 90    
Minimum Humidity 51    
Precipitation  
Precipitation T in 0.12 in 3.07 in (1971)
Month to date precipitation 1.61 2.28  
Year to date precipitation 31.90 37.70  
Sea Level Pressure  
Sea Level Pressure 30.01 in    
Wind  
Wind Speed 8 mph (ENE)    
Max Wind Speed 17 mph    
Max Gust Speed 27 mph    
Visibility 10 miles    
Events      
T = Trace of Precipitation, MM = Missing Value Source: NWS Daily Summary

Daily Weather History Graph

Daily Weather History Graph

Search for Another Location

Airport or City:

Astronomy

Sep. 18, 2019 Rise Set
Actual Time 7:23 AM EDT 7:40 PM EDT
Civil Twilight 6:58 AM EDT 8:05 PM EDT
Nautical Twilight 6:29 AM EDT 8:34 PM EDT
Astronomical Twilight 5:59 AM EDT 9:04 PM EDT
Moon 10:25 PM EDT (9/18) 11:15 AM EDT (9/18)
Length of Visible Light 13h 07m
Length of Day
12h 17m
Waning Gibbous, 82% of the Moon is Illuminated
Sep 18
Waning Gibbous
Sep 21
Last Quarter
Sep 28
New
Oct 5
First Quarter
Oct 13
Full

Hourly Weather History & Observations

Time (EDT) Temp. Heat Index Dew Point Humidity Pressure Visibility Wind Dir Wind Speed Gust Speed Precip Events Conditions
12:53 AM 78.1 °F - 69.1 °F 74% 29.94 in 10.0 mi Calm Calm - N/A   Overcast
1:53 AM 77.0 °F - 69.1 °F 76% 29.94 in 10.0 mi Calm Calm - 0.00 in   Clear
2:53 AM 73.0 °F - 68.0 °F 84% 29.94 in 10.0 mi Calm Calm - N/A   Clear
3:53 AM 72.0 °F - 68.0 °F 87% 29.94 in 10.0 mi Calm Calm - N/A   Clear
4:53 AM 71.1 °F - 66.9 °F 87% 29.94 in 10.0 mi Calm Calm - N/A   Clear
5:53 AM 72.0 °F - 66.9 °F 84% 29.95 in 10.0 mi NNE 5.8 mph - N/A   Clear
6:53 AM 73.0 °F - 66.9 °F 81% 29.97 in 10.0 mi NE 5.8 mph - N/A   Clear
7:53 AM 73.0 °F - 66.9 °F 81% 29.99 in 10.0 mi ENE 6.9 mph - N/A   Clear
8:53 AM 75.9 °F - 64.9 °F 69% 30.01 in 10.0 mi ENE 9.2 mph - N/A   Clear
9:53 AM 78.1 °F - 64.0 °F 62% 30.02 in 10.0 mi East 11.5 mph - N/A   Clear
10:53 AM 80.1 °F 81.9 °F 64.9 °F 60% 30.03 in 10.0 mi East 9.2 mph - N/A   Clear
11:53 AM 82.9 °F 84.0 °F 63.0 °F 51% 30.03 in 10.0 mi Variable 5.8 mph - N/A   Clear
12:53 PM 84.0 °F 86.3 °F 66.0 °F 55% 30.03 in 10.0 mi East 10.4 mph - N/A   Mostly Cloudy
1:53 PM 84.0 °F 86.5 °F 66.9 °F 56% 30.02 in 10.0 mi East 9.2 mph - N/A   Mostly Cloudy
2:53 PM 84.9 °F 88.2 °F 68.0 °F 57% 30.01 in 10.0 mi ENE 12.7 mph 27.6 mph N/A   Mostly Cloudy
3:53 PM 86.0 °F 89.4 °F 68.0 °F 55% 30.01 in 10.0 mi ENE 13.8 mph - N/A   Mostly Cloudy
4:53 PM 84.9 °F 87.6 °F 66.9 °F 55% 30.01 in 10.0 mi ENE 13.8 mph - N/A   Partly Cloudy
5:53 PM 82.9 °F 85.4 °F 66.9 °F 58% 30.01 in 10.0 mi ENE 15.0 mph - N/A   Partly Cloudy
6:53 PM 81.0 °F 83.0 °F 66.0 °F 60% 30.02 in 10.0 mi ENE 15.0 mph - N/A   Clear
7:53 PM 79.0 °F - 64.9 °F 62% 30.03 in 10.0 mi East 10.4 mph - N/A   Clear
8:53 PM 77.0 °F - 64.0 °F 64% 30.06 in 10.0 mi East 9.2 mph - N/A   Clear
9:53 PM 75.0 °F - 63.0 °F 66% 30.08 in 10.0 mi ENE 8.1 mph - N/A   Clear
10:53 PM 73.9 °F - 59.0 °F 59% 30.10 in 10.0 mi ENE 8.1 mph - N/A   Clear
11:53 PM 73.0 °F - 57.9 °F 59% 30.10 in 10.0 mi East 5.8 mph - N/A   Clear